SBI3567 UUDD-LOWW

Flight info

Callsign SBI3567
Flight time 2h 19m
Altitude 36000
Route SOTOG4Q SOTOG L736 GODBI L856 RAVOK P851 VALOL M984 LETKI/N0448F360 M984 KOTEK/N0401F240 M984 TUSIN DCT UPLAV DCT MIKOV MIKOV8W
Aircraft B738/M-SDE2E3FGHIRWXY/LB1

Departure

Time 2026-05-05 16:34
Airport Domodedovo International Airport (UUDD)

Arrival

Time 2026-05-05 18:54
Airport Vienna International Airport (LOWW)
Time Latitude Longitude Altitude Speed Heading
2026-05-05 15:33 55.40911 37.90387 596 ft 0 kts 326°
2026-05-05 16:23 55.40913 37.90385 596 ft 1 kts 326°
2026-05-05 16:24 55.40925 37.90371 596 ft 3 kts 327°
2026-05-05 16:24 55.40950 37.90362 596 ft 4 kts 18°
2026-05-05 16:24 55.41002 37.90479 596 ft 7 kts 56°
2026-05-05 16:25 55.41025 37.90524 596 ft 7 kts 28°
2026-05-05 16:26 55.41013 37.90131 596 ft 10 kts 233°
2026-05-05 16:27 55.40979 37.90047 596 ft 9 kts 235°
2026-05-05 16:27 55.40933 37.89928 596 ft 15 kts 236°
2026-05-05 16:27 55.40874 37.89775 596 ft 13 kts 236°
2026-05-05 16:27 55.40834 37.89669 596 ft 7 kts 236°
2026-05-05 16:28 55.40804 37.89616 596 ft 7 kts 200°
2026-05-05 16:28 55.40755 37.89549 596 ft 12 kts 237°
2026-05-05 16:28 55.40709 37.89427 596 ft 11 kts 236°
2026-05-05 16:28 55.40671 37.89360 596 ft 5 kts 199°
2026-05-05 16:29 55.40630 37.89373 596 ft 9 kts 149°
2026-05-05 16:29 55.40554 37.89461 596 ft 16 kts 146°
2026-05-05 16:29 55.40450 37.89585 596 ft 20 kts 146°
2026-05-05 16:29 55.40323 37.89736 596 ft 23 kts 146°
2026-05-05 16:30 55.40197 37.89886 596 ft 20 kts 146°
2026-05-05 16:30 55.40097 37.90003 596 ft 14 kts 146°
2026-05-05 16:30 55.40030 37.90083 596 ft 11 kts 146°
2026-05-05 16:30 55.39956 37.90171 596 ft 15 kts 146°
2026-05-05 16:31 55.39866 37.90279 596 ft 16 kts 146°
2026-05-05 16:31 55.39783 37.90378 596 ft 12 kts 146°
2026-05-05 16:31 55.39724 37.90448 596 ft 12 kts 146°
2026-05-05 16:31 55.39656 37.90527 596 ft 10 kts 146°
2026-05-05 16:32 55.39616 37.90542 596 ft 3 kts 204°
2026-05-05 16:32 55.39608 37.90530 596 ft 1 kts 232°
2026-05-05 16:32 55.39607 37.90529 596 ft 0 kts 232°
2026-05-05 16:32 55.39606 37.90525 596 ft 2 kts 232°
2026-05-05 16:33 55.39580 37.90467 596 ft 9 kts 232°
2026-05-05 16:33 55.39539 37.90368 596 ft 8 kts 235°
2026-05-05 16:33 55.39543 37.90312 596 ft 6 kts 311°
2026-05-05 16:33 55.39632 37.90195 596 ft 35 kts 325°
2026-05-05 16:34 55.40034 37.89721 596 ft 103 kts 326°
2026-05-05 16:34 55.40794 37.88812 597 ft 161 kts 325°
2026-05-05 16:34 55.41816 37.87584 1019 ft 180 kts 325°
2026-05-05 16:34 55.42828 37.86406 1991 ft 169 kts 323°
2026-05-05 16:35 55.43764 37.85245 2858 ft 164 kts 317°
2026-05-05 16:35 55.44586 37.83757 3352 ft 177 kts 306°
2026-05-05 16:35 55.46060 37.79950 4048 ft 210 kts 290°
2026-05-05 16:36 55.46234 37.77379 4027 ft 220 kts 259°
2026-05-05 16:36 55.45573 37.74870 4169 ft 237 kts 229°
2026-05-05 16:36 55.44217 37.73218 4837 ft 247 kts 202°
2026-05-05 16:36 55.42465 37.72711 5573 ft 260 kts 182°
2026-05-05 16:37 55.40646 37.73082 6349 ft 271 kts 171°
2026-05-05 16:37 55.38778 37.73795 6741 ft 274 kts 171°
2026-05-05 16:37 55.36934 37.74501 6951 ft 276 kts 172°
2026-05-05 16:37 55.35057 37.75295 7174 ft 282 kts 166°
2026-05-05 16:38 55.33252 37.76725 8078 ft 286 kts 156°
2026-05-05 16:38 55.31415 37.77977 8895 ft 282 kts 176°
2026-05-05 16:38 55.29496 37.77856 9659 ft 275 kts 200°
2026-05-05 16:38 55.27799 37.76443 10428 ft 270 kts 219°
2026-05-05 16:39 55.26385 37.74264 11052 ft 277 kts 226°
2026-05-05 16:39 55.24892 37.71913 11412 ft 297 kts 226°
2026-05-05 16:39 55.23304 37.69409 11702 ft 317 kts 225°
2026-05-05 16:39 55.21621 37.66758 12130 ft 331 kts 225°
2026-05-05 16:40 55.19895 37.64040 12806 ft 336 kts 225°
2026-05-05 16:40 55.18145 37.61288 13528 ft 340 kts 225°
2026-05-05 16:40 55.16389 37.58528 14240 ft 343 kts 225°
2026-05-05 16:40 55.14600 37.55699 14943 ft 346 kts 226°
2026-05-05 16:41 55.12806 37.52826 15627 ft 350 kts 226°
2026-05-05 16:41 55.11001 37.49958 16286 ft 353 kts 226°
2026-05-05 16:41 55.09189 37.47099 16936 ft 356 kts 226°
2026-05-05 16:41 55.07334 37.44184 17556 ft 360 kts 226°
2026-05-05 16:42 55.05481 37.41281 18155 ft 363 kts 226°
2026-05-05 16:42 55.03590 37.38329 18749 ft 367 kts 225°
2026-05-05 16:42 55.01678 37.35349 19332 ft 370 kts 225°
2026-05-05 16:42 54.99750 37.32350 19906 ft 373 kts 225°
2026-05-05 16:43 54.97798 37.29318 20459 ft 376 kts 225°
2026-05-05 16:43 54.95856 37.26303 20987 ft 380 kts 225°
2026-05-05 16:43 54.93870 37.23225 21495 ft 383 kts 224°
2026-05-05 16:43 54.91876 37.20134 22000 ft 386 kts 224°
2026-05-05 16:44 54.89868 37.16931 22493 ft 389 kts 226°
2026-05-05 16:44 54.87952 37.13658 22962 ft 391 kts 227°
2026-05-05 16:44 54.86021 37.10320 23422 ft 394 kts 227°
2026-05-05 16:44 54.84053 37.06952 23871 ft 398 kts 226°
2026-05-05 16:45 54.82073 37.03587 24305 ft 400 kts 226°
2026-05-05 16:45 54.80068 37.00195 24729 ft 403 kts 226°
2026-05-05 16:45 54.78055 36.96799 25135 ft 406 kts 226°
2026-05-05 16:45 54.76282 36.92992 25524 ft 407 kts 240°
2026-05-05 16:46 54.75146 36.88475 25898 ft 410 kts 254°
2026-05-05 16:46 54.74550 36.83651 26259 ft 413 kts 257°
2026-05-05 16:46 54.73945 36.78759 26618 ft 416 kts 259°
2026-05-05 16:46 54.73629 36.73761 26964 ft 419 kts 265°
2026-05-05 16:47 54.73460 36.68699 27301 ft 422 kts 265°
2026-05-05 16:47 54.73309 36.63615 27629 ft 425 kts 266°
2026-05-05 16:47 54.73307 36.58539 27944 ft 428 kts 270°
2026-05-05 16:47 54.73403 36.53367 28252 ft 431 kts 270°
2026-05-05 16:48 54.73473 36.48113 28557 ft 433 kts 269°
2026-05-05 16:48 54.73523 36.42960 28846 ft 436 kts 269°
2026-05-05 16:48 54.73562 36.37683 29131 ft 438 kts 269°
2026-05-05 16:48 54.73593 36.32397 29420 ft 440 kts 269°
2026-05-05 16:49 54.73621 36.27127 29814 ft 439 kts 269°
2026-05-05 16:49 54.73647 36.21932 30199 ft 438 kts 269°
2026-05-05 16:49 54.73672 36.16571 30538 ft 439 kts 269°
2026-05-05 16:49 54.73691 36.11293 30892 ft 438 kts 269°
2026-05-05 16:50 54.73707 36.05997 31230 ft 438 kts 269°
2026-05-05 16:50 54.73718 36.00729 31565 ft 438 kts 269°
2026-05-05 16:50 54.73727 35.95450 31893 ft 438 kts 269°
2026-05-05 16:50 54.73734 35.90226 32213 ft 438 kts 268°
2026-05-05 16:51 54.73739 35.84960 32529 ft 438 kts 268°
2026-05-05 16:51 54.73741 35.79678 32839 ft 438 kts 268°
2026-05-05 16:51 54.73781 35.74422 33146 ft 438 kts 270°
2026-05-05 16:51 54.73825 35.69136 33435 ft 439 kts 269°
2026-05-05 16:52 54.73842 35.63842 33737 ft 438 kts 268°
2026-05-05 16:52 54.73846 35.58579 34032 ft 438 kts 268°
2026-05-05 16:52 54.73842 35.53302 34317 ft 438 kts 268°
2026-05-05 16:52 54.73832 35.48027 34604 ft 438 kts 268°
2026-05-05 16:53 54.73819 35.42772 34888 ft 438 kts 268°
2026-05-05 16:53 54.73802 35.37491 35149 ft 438 kts 268°
2026-05-05 16:53 54.73785 35.32216 35416 ft 438 kts 268°
2026-05-05 16:53 54.73700 35.26955 35670 ft 437 kts 264°
2026-05-05 16:54 54.73344 35.21705 35806 ft 439 kts 259°
2026-05-05 16:54 54.72688 35.16528 35812 ft 439 kts 254°
2026-05-05 16:54 54.70942 35.06412 35817 ft 437 kts 252°
2026-05-05 16:55 54.69137 34.96482 35817 ft 435 kts 251°
2026-05-05 16:55 54.67315 34.86514 35819 ft 435 kts 251°
2026-05-05 16:56 54.65483 34.76537 35817 ft 435 kts 251°
2026-05-05 16:56 54.63642 34.66569 35818 ft 435 kts 251°
2026-05-05 16:57 54.61854 34.56599 35818 ft 435 kts 252°
2026-05-05 16:57 54.60042 34.46611 35817 ft 435 kts 251°
2026-05-05 16:58 54.58213 34.36660 35818 ft 435 kts 251°
2026-05-05 16:58 54.56371 34.26734 35817 ft 435 kts 251°
2026-05-05 16:59 54.54512 34.16781 35817 ft 436 kts 251°
2026-05-05 16:59 54.52648 34.06864 35833 ft 436 kts 251°
2026-05-05 17:00 54.50798 33.96848 35867 ft 439 kts 251°
2026-05-05 17:00 54.48922 33.86947 35881 ft 438 kts 251°
2026-05-05 17:01 54.47007 33.76991 35889 ft 438 kts 251°
2026-05-05 17:01 54.45079 33.67045 35890 ft 438 kts 251°
2026-05-05 17:02 54.43154 33.57136 35892 ft 438 kts 250°
2026-05-05 17:02 54.41214 33.47198 35896 ft 438 kts 250°
2026-05-05 17:03 54.39257 33.37263 35903 ft 439 kts 250°
2026-05-05 17:03 54.37296 33.27380 35905 ft 439 kts 250°
2026-05-05 17:04 54.35318 33.17471 35905 ft 439 kts 250°
2026-05-05 17:04 54.33333 33.07573 35905 ft 439 kts 250°
2026-05-05 17:05 54.31674 32.99345 35905 ft 439 kts 250°
2026-05-05 17:05 54.29401 32.87805 35905 ft 439 kts 250°
2026-05-05 17:06 54.27765 32.79564 35905 ft 439 kts 250°
2026-05-05 17:06 54.25780 32.69674 35893 ft 439 kts 250°
2026-05-05 17:07 54.23785 32.59823 35881 ft 439 kts 250°
2026-05-05 17:07 54.21774 32.49959 35873 ft 439 kts 250°
2026-05-05 17:08 54.19755 32.40113 35872 ft 439 kts 250°
2026-05-05 17:08 54.17758 32.30232 35869 ft 440 kts 250°
2026-05-05 17:09 54.15724 32.20374 35868 ft 440 kts 250°
2026-05-05 17:09 54.13666 32.10546 35871 ft 439 kts 249°
2026-05-05 17:10 54.11599 32.00746 35870 ft 439 kts 249°
2026-05-05 17:10 54.09527 31.90959 35873 ft 439 kts 249°
2026-05-05 17:11 54.07451 31.81161 35868 ft 440 kts 249°
2026-05-05 17:11 54.05378 31.71450 35869 ft 439 kts 249°
2026-05-05 17:12 54.03280 31.61678 35866 ft 440 kts 249°
2026-05-05 17:12 54.01173 31.51908 35863 ft 440 kts 249°
2026-05-05 17:13 53.99059 31.42150 35865 ft 439 kts 249°
2026-05-05 17:13 53.96971 31.32357 35850 ft 440 kts 250°
2026-05-05 17:14 53.94915 31.22580 35848 ft 440 kts 249°
2026-05-05 17:14 53.92797 31.12841 35845 ft 440 kts 249°
2026-05-05 17:15 53.90677 31.03218 35845 ft 440 kts 249°
2026-05-05 17:15 53.88516 30.93462 35846 ft 440 kts 249°
2026-05-05 17:16 53.86359 30.83744 35842 ft 440 kts 248°
2026-05-05 17:16 53.84178 30.74051 35842 ft 440 kts 248°
2026-05-05 17:17 53.81983 30.64359 35840 ft 440 kts 248°
2026-05-05 17:17 53.79777 30.54671 35842 ft 440 kts 248°
2026-05-05 17:18 53.77567 30.45006 35843 ft 440 kts 248°
2026-05-05 17:18 53.75365 30.35409 35843 ft 440 kts 248°
2026-05-05 17:19 53.73177 30.25744 35844 ft 441 kts 249°
2026-05-05 17:19 53.71030 30.16070 35842 ft 440 kts 248°
2026-05-05 17:20 53.68811 30.06430 35839 ft 440 kts 248°
2026-05-05 17:20 53.66575 29.96839 35833 ft 440 kts 248°
2026-05-05 17:21 53.64324 29.87243 35825 ft 440 kts 248°
2026-05-05 17:22 53.60943 29.72847 35824 ft 440 kts 248°
2026-05-05 17:22 53.58722 29.63225 35824 ft 441 kts 248°
2026-05-05 17:23 53.56455 29.53612 35824 ft 441 kts 248°
2026-05-05 17:23 53.54174 29.44041 35822 ft 440 kts 247°
2026-05-05 17:24 53.51887 29.34490 35822 ft 441 kts 247°
2026-05-05 17:24 53.49605 29.24977 35820 ft 441 kts 247°
2026-05-05 17:25 53.47305 29.15438 35820 ft 441 kts 247°
2026-05-05 17:25 53.45034 29.05864 35819 ft 441 kts 247°
2026-05-05 17:26 53.42723 28.96318 35818 ft 441 kts 247°
2026-05-05 17:26 53.40396 28.86813 35817 ft 441 kts 247°
2026-05-05 17:27 53.38054 28.77298 35817 ft 441 kts 247°
2026-05-05 17:27 53.35716 28.67824 35817 ft 440 kts 247°
2026-05-05 17:28 53.33438 28.58314 35817 ft 440 kts 248°
2026-05-05 17:28 53.31209 28.48837 35817 ft 441 kts 248°
2026-05-05 17:29 53.28952 28.39309 35817 ft 440 kts 248°
2026-05-05 17:29 53.26687 28.29786 35817 ft 440 kts 248°
2026-05-05 17:30 53.24417 28.20286 35817 ft 440 kts 248°
2026-05-05 17:30 53.22208 28.10744 35817 ft 440 kts 248°
2026-05-05 17:31 53.19964 28.01246 35817 ft 440 kts 248°
2026-05-05 17:31 53.17698 27.91837 35817 ft 440 kts 247°
2026-05-05 17:32 53.15400 27.82377 35817 ft 440 kts 247°
2026-05-05 17:32 53.13096 27.72930 35817 ft 440 kts 247°
2026-05-05 17:33 53.10789 27.63468 35817 ft 440 kts 247°
2026-05-05 17:33 53.08474 27.54012 35817 ft 440 kts 247°
2026-05-05 17:34 53.06153 27.44595 35817 ft 440 kts 247°
2026-05-05 17:34 53.03822 27.35183 35817 ft 439 kts 247°
2026-05-05 17:35 53.01487 27.25804 35817 ft 440 kts 247°
2026-05-05 17:35 52.99152 27.16469 35817 ft 440 kts 247°
2026-05-05 17:36 52.96847 27.07066 35817 ft 440 kts 247°
2026-05-05 17:36 52.94534 26.97675 35817 ft 440 kts 247°
2026-05-05 17:37 52.92200 26.88294 35817 ft 440 kts 247°
2026-05-05 17:37 52.89847 26.78905 35817 ft 440 kts 247°
2026-05-05 17:38 52.87490 26.69558 35817 ft 440 kts 246°
2026-05-05 17:38 52.85118 26.60196 35817 ft 440 kts 246°
2026-05-05 17:39 52.82744 26.50874 35817 ft 440 kts 246°
2026-05-05 17:39 52.80359 26.41547 35815 ft 440 kts 246°
2026-05-05 17:40 52.77968 26.32235 35817 ft 440 kts 246°
2026-05-05 17:40 52.75586 26.22999 35817 ft 440 kts 246°
2026-05-05 17:41 52.73182 26.13719 35830 ft 439 kts 246°
2026-05-05 17:41 52.71175 26.05995 35831 ft 440 kts 246°
2026-05-05 17:42 52.68350 25.95172 35836 ft 440 kts 246°
2026-05-05 17:42 52.65917 25.85891 35836 ft 441 kts 246°
2026-05-05 17:43 52.63477 25.76624 35837 ft 441 kts 246°
2026-05-05 17:43 52.61027 25.67351 35837 ft 441 kts 246°
2026-05-05 17:44 52.58568 25.58087 35836 ft 441 kts 246°
2026-05-05 17:44 52.56110 25.48858 35838 ft 441 kts 246°
2026-05-05 17:45 52.53668 25.39611 35834 ft 441 kts 246°
2026-05-05 17:45 52.51205 25.30382 35833 ft 441 kts 245°
2026-05-05 17:46 52.49135 25.22725 35834 ft 441 kts 245°
2026-05-05 17:46 52.46637 25.13545 35832 ft 441 kts 245°
2026-05-05 17:47 52.44128 25.04358 35832 ft 441 kts 245°
2026-05-05 17:47 52.41628 24.95166 35830 ft 441 kts 246°
2026-05-05 17:48 52.39407 24.85797 35829 ft 441 kts 249°
2026-05-05 17:48 52.37230 24.76403 35827 ft 441 kts 248°
2026-05-05 17:49 52.35029 24.67030 35825 ft 441 kts 248°
2026-05-05 17:49 52.32827 24.57704 35824 ft 441 kts 249°
2026-05-05 17:50 52.30669 24.48303 35823 ft 442 kts 248°
2026-05-05 17:50 52.28452 24.38932 35821 ft 442 kts 248°
2026-05-05 17:51 52.26209 24.29586 35820 ft 443 kts 248°
2026-05-05 17:51 52.23949 24.20229 35819 ft 442 kts 248°
2026-05-05 17:52 52.22029 24.10766 35818 ft 443 kts 258°
2026-05-05 17:52 52.21579 24.00731 35819 ft 445 kts 268°
2026-05-05 17:53 52.21737 23.90615 35818 ft 446 kts 270°
2026-05-05 17:53 52.21927 23.80513 35819 ft 446 kts 270°
2026-05-05 17:54 52.22099 23.70391 35818 ft 446 kts 270°
2026-05-05 17:54 52.22258 23.60313 35819 ft 444 kts 270°
2026-05-05 17:55 52.21983 23.50324 35811 ft 440 kts 254°
2026-05-05 17:55 52.20837 23.45695 35822 ft 440 kts 241°
2026-05-05 17:55 52.19309 23.41428 35820 ft 442 kts 238°
2026-05-05 17:56 52.15722 23.33305 35817 ft 441 kts 232°
2026-05-05 17:56 52.11941 23.25367 35816 ft 441 kts 232°
2026-05-05 17:57 52.08217 23.17491 35814 ft 441 kts 232°
2026-05-05 17:57 52.04482 23.09569 35814 ft 441 kts 232°
2026-05-05 17:58 52.00752 23.01654 35813 ft 442 kts 232°
2026-05-05 17:58 51.97023 22.93711 35811 ft 442 kts 233°
2026-05-05 17:59 51.93321 22.85749 35809 ft 442 kts 233°
2026-05-05 17:59 51.89609 22.77821 35806 ft 442 kts 233°
2026-05-05 18:00 51.85900 22.69942 35801 ft 442 kts 232°
2026-05-05 18:00 51.82160 22.62030 35800 ft 442 kts 232°
2026-05-05 18:01 51.78422 22.54152 35798 ft 442 kts 232°
2026-05-05 18:01 51.74666 22.46263 35789 ft 443 kts 232°
2026-05-05 18:02 51.70908 22.38396 35780 ft 442 kts 232°
2026-05-05 18:02 51.67139 22.30529 35783 ft 443 kts 232°
2026-05-05 18:03 51.63374 22.22696 35783 ft 443 kts 232°
2026-05-05 18:03 51.59583 22.14832 35781 ft 443 kts 232°
2026-05-05 18:04 51.55829 22.07069 35782 ft 443 kts 232°
2026-05-05 18:04 51.52043 21.99261 35779 ft 443 kts 232°
2026-05-05 18:05 51.48253 21.91469 35782 ft 443 kts 232°
2026-05-05 18:05 51.44453 21.83681 35786 ft 443 kts 232°
2026-05-05 18:06 51.40657 21.75894 35783 ft 443 kts 232°
2026-05-05 18:06 51.36871 21.68121 35783 ft 443 kts 232°
2026-05-05 18:07 51.33056 21.60376 35786 ft 443 kts 231°
2026-05-05 18:07 51.29225 21.52644 35788 ft 443 kts 231°
2026-05-05 18:08 51.25395 21.44939 35788 ft 443 kts 231°
2026-05-05 18:08 51.21549 21.37212 35786 ft 446 kts 232°
2026-05-05 18:09 51.17698 21.29488 35782 ft 446 kts 232°
2026-05-05 18:09 51.13819 21.21737 35782 ft 446 kts 232°
2026-05-05 18:10 51.09966 21.14064 35792 ft 446 kts 232°
2026-05-05 18:10 51.06080 21.06349 35791 ft 447 kts 232°
2026-05-05 18:11 51.02194 20.98654 35782 ft 446 kts 232°
2026-05-05 18:11 50.98312 20.90931 35787 ft 446 kts 232°
2026-05-05 18:12 50.94447 20.83226 35795 ft 447 kts 232°
2026-05-05 18:12 50.90588 20.75588 35798 ft 446 kts 232°
2026-05-05 18:13 50.86670 20.67872 35799 ft 448 kts 232°
2026-05-05 18:13 50.82798 20.60216 35792 ft 448 kts 232°
2026-05-05 18:14 50.78898 20.52565 35786 ft 447 kts 232°
2026-05-05 18:14 50.74968 20.44919 35797 ft 448 kts 232°
2026-05-05 18:15 50.71041 20.37316 35797 ft 446 kts 232°
2026-05-05 18:15 50.67115 20.29733 35785 ft 445 kts 231°
2026-05-05 18:16 50.63258 20.22097 35786 ft 446 kts 235°
2026-05-05 18:16 50.59660 20.14133 35792 ft 446 kts 235°
2026-05-05 18:17 50.55990 20.06266 35791 ft 446 kts 234°
2026-05-05 18:17 50.52323 19.98436 35790 ft 445 kts 234°
2026-05-05 18:18 50.48645 19.90604 35788 ft 445 kts 234°
2026-05-05 18:18 50.44962 19.82783 35787 ft 445 kts 234°
2026-05-05 18:19 50.41278 19.74979 35787 ft 445 kts 234°
2026-05-05 18:19 50.37622 19.67160 35787 ft 445 kts 234°
2026-05-05 18:20 50.33954 19.59339 35787 ft 446 kts 234°
2026-05-05 18:20 50.30263 19.51521 35787 ft 445 kts 234°
2026-05-05 18:21 50.26574 19.43744 35787 ft 446 kts 234°
2026-05-05 18:21 50.22877 19.35979 35788 ft 446 kts 234°
2026-05-05 18:22 50.19193 19.28193 35787 ft 445 kts 234°
2026-05-05 18:22 50.15482 19.20433 35788 ft 446 kts 234°
2026-05-05 18:23 50.11772 19.12734 35787 ft 446 kts 234°
2026-05-05 18:23 50.08029 19.05000 35787 ft 446 kts 234°
2026-05-05 18:24 50.04289 18.97286 35787 ft 446 kts 234°
2026-05-05 18:24 50.00555 18.89549 35787 ft 447 kts 234°
2026-05-05 18:25 49.96803 18.81831 35641 ft 446 kts 234°
2026-05-05 18:25 49.93071 18.74205 35139 ft 440 kts 233°
2026-05-05 18:25 49.91221 18.70439 34890 ft 441 kts 233°
2026-05-05 18:26 49.89383 18.66700 34643 ft 441 kts 233°
2026-05-05 18:26 49.88127 18.64148 34475 ft 441 kts 233°
2026-05-05 18:26 49.85655 18.59126 34143 ft 442 kts 233°
2026-05-05 18:26 49.83791 18.55346 33893 ft 442 kts 233°
2026-05-05 18:27 49.81922 18.51569 33811 ft 442 kts 233°
2026-05-05 18:27 49.78182 18.44034 33795 ft 443 kts 233°
2026-05-05 18:28 49.73168 18.33970 33794 ft 443 kts 233°
2026-05-05 18:28 49.69404 18.26439 33795 ft 442 kts 233°
2026-05-05 18:29 49.65644 18.18935 33789 ft 442 kts 233°
2026-05-05 18:29 49.61899 18.11421 33788 ft 442 kts 233°
2026-05-05 18:30 49.58150 18.03892 33787 ft 442 kts 233°
2026-05-05 18:30 49.54392 17.96397 33781 ft 442 kts 233°
2026-05-05 18:31 49.50664 17.88951 33775 ft 441 kts 233°
2026-05-05 18:31 49.46909 17.81485 33771 ft 441 kts 233°
2026-05-05 18:32 49.43154 17.74091 33233 ft 434 kts 233°
2026-05-05 18:32 49.41282 17.70420 32596 ft 433 kts 233°
2026-05-05 18:32 49.39425 17.66785 32076 ft 430 kts 233°
2026-05-05 18:33 49.37591 17.63200 31570 ft 427 kts 233°
2026-05-05 18:33 49.35761 17.59626 31068 ft 423 kts 233°
2026-05-05 18:33 49.33944 17.56081 30578 ft 420 kts 233°
2026-05-05 18:33 49.32170 17.52625 30101 ft 416 kts 232°
2026-05-05 18:34 49.30290 17.49211 29622 ft 413 kts 230°
2026-05-05 18:34 49.28379 17.45952 29156 ft 410 kts 229°
2026-05-05 18:34 49.26481 17.42775 28699 ft 407 kts 229°
2026-05-05 18:34 49.24582 17.39587 28238 ft 404 kts 229°
2026-05-05 18:35 49.22691 17.36405 27778 ft 401 kts 229°
2026-05-05 18:35 49.20824 17.33259 27336 ft 398 kts 229°
2026-05-05 18:35 49.18981 17.30152 26972 ft 393 kts 229°
2026-05-05 18:35 49.17145 17.27055 26527 ft 391 kts 229°
2026-05-05 18:36 49.15325 17.23985 26081 ft 389 kts 229°
2026-05-05 18:36 49.13516 17.20935 25629 ft 387 kts 229°
2026-05-05 18:36 49.11710 17.17890 25173 ft 385 kts 229°
2026-05-05 18:36 49.09918 17.14871 24723 ft 383 kts 229°
2026-05-05 18:37 49.08137 17.11842 24272 ft 382 kts 230°
2026-05-05 18:37 49.06383 17.08854 23823 ft 380 kts 230°
2026-05-05 18:37 49.04606 17.05838 23371 ft 379 kts 230°
2026-05-05 18:37 49.02846 17.02859 22923 ft 377 kts 230°
2026-05-05 18:38 49.01097 16.99906 22480 ft 375 kts 230°
2026-05-05 18:38 48.99369 16.96975 22042 ft 374 kts 230°
2026-05-05 18:38 48.97638 16.94034 21603 ft 372 kts 230°
2026-05-05 18:38 48.95909 16.91117 21167 ft 370 kts 230°
2026-05-05 18:39 48.94178 16.88211 20728 ft 369 kts 230°
2026-05-05 18:39 48.92458 16.85332 20288 ft 367 kts 230°
2026-05-05 18:39 48.90737 16.82458 19850 ft 366 kts 230°
2026-05-05 18:39 48.89026 16.79609 19417 ft 363 kts 230°
2026-05-05 18:40 48.87329 16.76818 19014 ft 354 kts 228°
2026-05-05 18:40 48.85469 16.74436 18610 ft 348 kts 216°
2026-05-05 18:40 48.83405 16.72543 18122 ft 344 kts 214°
2026-05-05 18:40 48.81360 16.70692 17551 ft 341 kts 213°
2026-05-05 18:41 48.79322 16.68861 17001 ft 339 kts 213°
2026-05-05 18:41 48.77303 16.67048 16472 ft 335 kts 213°
2026-05-05 18:41 48.75313 16.65261 15990 ft 331 kts 212°
2026-05-05 18:41 48.73359 16.63511 15494 ft 329 kts 212°
2026-05-05 18:42 48.71369 16.61729 14986 ft 326 kts 213°
2026-05-05 18:42 48.69419 16.59983 14451 ft 325 kts 212°
2026-05-05 18:42 48.67475 16.58242 13882 ft 324 kts 212°
2026-05-05 18:42 48.65569 16.56539 13316 ft 322 kts 212°
2026-05-05 18:43 48.63620 16.54799 12731 ft 319 kts 211°
2026-05-05 18:43 48.61738 16.53121 12162 ft 316 kts 211°
2026-05-05 18:43 48.59860 16.51446 11587 ft 313 kts 211°
2026-05-05 18:43 48.57984 16.49774 10963 ft 312 kts 211°
2026-05-05 18:44 48.56124 16.48118 10623 ft 302 kts 211°
2026-05-05 18:44 48.54367 16.46555 10518 ft 286 kts 211°
2026-05-05 18:44 48.52700 16.45060 10395 ft 272 kts 211°
2026-05-05 18:44 48.51107 16.43624 10107 ft 265 kts 211°
2026-05-05 18:45 48.49535 16.42202 9713 ft 262 kts 211°
2026-05-05 18:45 48.47971 16.40797 9297 ft 261 kts 210°
2026-05-05 18:45 48.46306 16.39741 8864 ft 259 kts 197°
2026-05-05 18:45 48.44557 16.39086 8458 ft 258 kts 193°
2026-05-05 18:46 48.42819 16.38501 8050 ft 256 kts 193°
2026-05-05 18:46 48.41108 16.37921 7638 ft 254 kts 193°
2026-05-05 18:46 48.39390 16.37334 7228 ft 252 kts 193°
2026-05-05 18:46 48.37685 16.36745 6813 ft 250 kts 193°
2026-05-05 18:47 48.35987 16.36152 6392 ft 249 kts 193°
2026-05-05 18:47 48.34307 16.35559 5983 ft 247 kts 193°
2026-05-05 18:47 48.32645 16.34978 5588 ft 244 kts 193°
2026-05-05 18:47 48.30987 16.34411 5162 ft 243 kts 193°
2026-05-05 18:48 48.29350 16.33849 4746 ft 241 kts 193°
2026-05-05 18:48 48.27726 16.33290 4458 ft 234 kts 193°
2026-05-05 18:48 48.26186 16.32759 4344 ft 220 kts 193°
2026-05-05 18:48 48.24742 16.32261 4260 ft 205 kts 193°
2026-05-05 18:49 48.23394 16.31794 4141 ft 191 kts 193°
2026-05-05 18:49 48.22149 16.31363 4023 ft 176 kts 193°
2026-05-05 18:49 48.20996 16.31488 3816 ft 167 kts 156°
2026-05-05 18:49 48.20096 16.32483 3569 ft 166 kts 144°
2026-05-05 18:50 48.19215 16.33665 3497 ft 164 kts 143°
2026-05-05 18:50 48.18373 16.34818 3498 ft 165 kts 140°
2026-05-05 18:50 48.17720 16.36339 3198 ft 183 kts 121°
2026-05-05 18:50 48.17197 16.38087 2899 ft 181 kts 120°
2026-05-05 18:51 48.16677 16.39768 2653 ft 172 kts 121°
2026-05-05 18:51 48.16173 16.41347 2411 ft 165 kts 122°
2026-05-05 18:51 48.15680 16.42875 2189 ft 160 kts 123°
2026-05-05 18:51 48.15212 16.44320 1987 ft 152 kts 124°
2026-05-05 18:52 48.14761 16.45710 1771 ft 142 kts 126°
2026-05-05 18:52 48.14341 16.47003 1580 ft 134 kts 127°
2026-05-05 18:52 48.13934 16.48254 1397 ft 134 kts 127°
2026-05-05 18:52 48.13527 16.49506 1218 ft 138 kts 126°
2026-05-05 18:53 48.13100 16.50818 1029 ft 142 kts 123°
2026-05-05 18:53 48.12660 16.52160 820 ft 146 kts 121°
2026-05-05 18:53 48.12217 16.53532 649 ft 146 kts 120°
2026-05-05 18:53 48.11796 16.54820 608 ft 126 kts 116°
2026-05-05 18:54 48.11517 16.55676 608 ft 50 kts 117°
2026-05-05 18:54 48.11417 16.55995 608 ft 25 kts 113°
2026-05-05 18:54 48.11346 16.56202 608 ft 19 kts 116°
2026-05-05 18:54 48.11304 16.56355 608 ft 13 kts 107°
2026-05-05 18:55 48.11290 16.56468 608 ft 11 kts 92°
2026-05-05 18:55 48.11291 16.56612 608 ft 15 kts 89°
2026-05-05 18:55 48.11304 16.56742 608 ft 9 kts 63°
2026-05-05 18:55 48.11331 16.56782 608 ft 4 kts 23°
2026-05-05 18:56 48.11370 16.56766 608 ft 9 kts 309°
2026-05-05 18:56 48.11413 16.56643 608 ft 17 kts 296°
2026-05-05 18:56 48.11473 16.56454 608 ft 23 kts 296°
2026-05-05 18:56 48.11545 16.56242 608 ft 20 kts 295°
2026-05-05 18:57 48.11597 16.56081 608 ft 14 kts 296°
2026-05-05 18:57 48.11631 16.55978 608 ft 8 kts 296°
2026-05-05 18:57 48.11660 16.55889 608 ft 13 kts 296°
2026-05-05 18:57 48.11713 16.55726 608 ft 21 kts 295°
2026-05-05 18:58 48.11778 16.55520 608 ft 20 kts 294°
2026-05-05 18:58 48.11828 16.55367 608 ft 12 kts 298°
2026-05-05 18:58 48.11850 16.55303 608 ft 0 kts 297°
2026-05-05 18:59 48.11857 16.55284 608 ft 6 kts 295°
2026-05-05 18:59 48.11889 16.55203 608 ft 9 kts 328°
2026-05-05 18:59 48.11927 16.55210 608 ft 4 kts 35°
2026-05-05 18:59 48.11940 16.55260 608 ft 7 kts 93°
2026-05-05 19:00 48.11919 16.55336 608 ft 9 kts 116°
2026-05-05 19:00 48.11897 16.55416 608 ft 6 kts 88°
2026-05-05 19:00 48.11917 16.55455 608 ft 7 kts 31°
2026-05-05 19:00 48.11971 16.55496 608 ft 7 kts 25°
2026-05-05 19:01 48.12001 16.55518 608 ft 4 kts 26°
2026-05-05 19:01 48.12025 16.55526 608 ft 1 kts 340°
2026-05-05 19:01 48.12027 16.55525 608 ft 1 kts 333°
2026-05-05 19:01 48.12039 16.55500 608 ft 6 kts 297°
2026-05-05 19:02 48.12061 16.55436 608 ft 0 kts 295°